Charlottesville, VA

8:24 AM EDT on May 26, 2017 (GMT -0400)
Charlottesville-Albemarle

Weather History for KCHO - November, 2013

Change the Weather History Date:

Thursday, November 21, 2013

  Actual Average Record
Temperature  
Mean Temperature 41 °F 45 °F  
Max Temperature 48 °F 55 °F 78 °F (1985)
Min Temperature 33 °F 35 °F 10 °F (1935)
Degree Days  
Heating Degree Days 24 20  
Month to date heating degree days 366 347  
Since 1 July heating degree days 681 696  
Cooling Degree Days 0 0  
Month to date cooling degree days 1 0  
Year to date cooling degree days 1146 1034  
Moisture  
Dew Point 33 °F    
Average Humidity 71    
Maximum Humidity 82    
Minimum Humidity 60    
Precipitation  
Precipitation 0.00 in 0.12 in 0.88 in (2005)
Month to date precipitation 0.49 2.67  
Year to date precipitation 38.18 38.40  
Sea Level Pressure  
Sea Level Pressure 30.49 in    
Wind  
Wind Speed 1 mph (East)    
Max Wind Speed 6 mph    
Max Gust Speed 6 mph    
Visibility 10 miles    
Events      
T = Trace of Precipitation, MM = Missing Value Source: NWS Daily Summary

Daily Weather History Graph

Daily Weather History Graph

Search for Another Location

Airport or City:

Trip Planner

Search our weather history database for the weather conditions in past years. The results will help you decide how hot, cold, wet, or windy it might be!

Date:

Astronomy

Nov. 21, 2013 Rise Set
Actual Time 7:01 AM EST 4:57 PM EST
Civil Twilight 6:32 AM EST 5:26 PM EST
Nautical Twilight 6:00 AM EST 5:58 PM EST
Astronomical Twilight 5:29 AM EST 6:29 PM EST
Moon 8:32 PM EST (11/21) 10:06 AM EST (11/21)
Length of Visible Light 10h 53m
Length of Day
9h 56m
Waning Gibbous, 85% of the Moon is Illuminated
Nov 21
Waning Gibbous
Nov 25
Last Quarter
Dec 2
New
Dec 9
First Quarter
Dec 17
Full

Hourly Weather History & Observations

Time (EST) Temp. Windchill Dew Point Humidity Pressure Visibility Wind Dir Wind Speed Gust Speed Precip Events Conditions
12:53 AM 34.0 °F 31.0 °F 26.1 °F 73% 30.53 in 10.0 mi North 3.5 mph - N/A   Scattered Clouds
1:53 AM 34.0 °F 31.0 °F 27.0 °F 75% 30.54 in 10.0 mi North 3.5 mph - N/A   Mostly Cloudy
2:53 AM 34.0 °F - 28.0 °F 79% 30.54 in 10.0 mi Calm Calm - N/A   Overcast
3:14 AM 35.1 °F - 28.9 °F 78% 30.52 in 10.0 mi Calm Calm - N/A   Overcast
3:53 AM 35.1 °F - 28.0 °F 76% 30.53 in 10.0 mi Calm Calm - N/A   Overcast
4:53 AM 36.0 °F - 28.9 °F 76% 30.54 in 10.0 mi Calm Calm - N/A   Overcast
5:53 AM 36.0 °F - 30.0 °F 79% 30.54 in 10.0 mi Calm Calm - N/A   Overcast
6:53 AM 37.0 °F - 30.0 °F 76% 30.55 in 10.0 mi Calm Calm - N/A   Overcast
7:48 AM 37.4 °F - 30.2 °F 75% 30.55 in 10.0 mi Calm Calm - N/A   Overcast
7:53 AM 37.0 °F - 30.9 °F 79% 30.56 in 10.0 mi Calm Calm - N/A   Overcast
8:21 AM 37.0 °F - 32.0 °F 82% 30.55 in 10.0 mi Calm Calm - N/A   Overcast
8:53 AM 39.0 °F - 32.0 °F 76% 30.55 in 10.0 mi Calm Calm - N/A   Overcast
9:53 AM 41.0 °F - 32.0 °F 70% 30.56 in 10.0 mi Calm Calm - N/A   Overcast
10:53 AM 44.1 °F - 33.1 °F 65% 30.54 in 10.0 mi Calm Calm - N/A   Overcast
11:53 AM 45.0 °F - 33.1 °F 63% 30.51 in 10.0 mi Calm Calm - N/A   Overcast
12:53 PM 46.0 °F - 34.0 °F 63% 30.48 in 10.0 mi Calm Calm - N/A   Overcast
1:53 PM 46.9 °F - 35.1 °F 63% 30.46 in 10.0 mi Calm Calm - N/A   Overcast
2:53 PM 48.0 °F - 36.0 °F 63% 30.44 in 10.0 mi Calm Calm - N/A   Overcast
3:53 PM 48.0 °F - 36.0 °F 63% 30.43 in 10.0 mi SSE 3.5 mph - N/A   Overcast
4:53 PM 46.9 °F - 36.0 °F 66% 30.44 in 10.0 mi Calm Calm - N/A   Overcast
5:53 PM 46.9 °F - 37.0 °F 68% 30.45 in 10.0 mi Calm Calm - N/A   Overcast
6:53 PM 45.0 °F - 37.9 °F 76% 30.44 in 10.0 mi Calm Calm - N/A   Overcast
7:53 PM 46.0 °F - 37.0 °F 71% 30.44 in 10.0 mi Calm Calm - N/A   Overcast
8:53 PM 45.0 °F - 36.0 °F 71% 30.43 in 10.0 mi Calm Calm - N/A   Overcast
9:53 PM 44.1 °F - 37.0 °F 76% 30.41 in 10.0 mi Calm Calm - N/A   Overcast
10:39 PM 45.0 °F - 37.9 °F 76% 30.40 in 10.0 mi Calm Calm - N/A   Overcast
10:53 PM 46.0 °F - 39.0 °F 76% 30.41 in 10.0 mi Calm Calm - N/A   Overcast
11:53 PM 45.0 °F 43.5 °F 37.9 °F 76% 30.40 in 10.0 mi South 3.5 mph - N/A   Overcast